QPF
0.00 0.02 0.04 0.09 0.10 0.07 0.04 0.02 0.01 0.01 0.01 0.01 0.01 0.01 0.01 0.03 0.03 0.06 0.11 0.08 0.05 0.05 0.04 0.05 0.08 0.07 0.03 0.02 0.02 0.03 0.05 0.07 0.08 0.11 0.12 0.16 0.17 0.15 0.14 0.11 0.12 0.12 0.13 0.13 0.11 0.09 0.08 0.08 0.08
0.02 0.05 0.07 0.08 0.07 0.05 0.06 0.02 0.01 0.01 0.01 0.00 0.00 0.00 0.00 0.01 0.01 0.04 0.11 0.10 0.07 0.06 0.06 0.08 0.08 0.06 0.03 0.02 0.02 0.03 0.07 0.09 0.10 0.11 0.14 0.15 0.14 0.11 0.10 0.09 0.10 0.11 0.13 0.12 0.09 0.07 0.06 0.07 0.06
0.04 0.06 0.07 0.08 0.03 0.01 0.02 0.01 0.02 0.04 0.02 0.01 0.00 0.00 0.00 0.01 0.01 0.04 0.08 0.08 0.06 0.05 0.06 0.09 0.07 0.05 0.04 0.03 0.02 0.02 0.07 0.12 0.09 0.09 0.12 0.13 0.14 0.11 0.09 0.09 0.10 0.10 0.11 0.10 0.08 0.06 0.06 0.05 0.06
0.04 0.05 0.05 0.04 0.01 0.00 0.00 0.00 0.01 0.02 0.01 0.01 0.00 0.00 0.00 0.00 0.01 0.03 0.06 0.06 0.06 0.04 0.04 0.07 0.07 0.07 0.04 0.03 0.03 0.03 0.04 0.09 0.10 0.09 0.11 0.14 0.18 0.13 0.08 0.09 0.10 0.12 0.12 0.09 0.07 0.05 0.05 0.05 0.05
0.03 0.03 0.03 0.01 0.00 0.00 0.00 0.00 0.00 0.01 0.02 0.01 0.00 0.00 0.00 0.01 0.01 0.02 0.04 0.06 0.06 0.04 0.04 0.05 0.07 0.08 0.07 0.04 0.03 0.03 0.04 0.05 0.07 0.11 0.14 0.15 0.16 0.13 0.11 0.11 0.13 0.15 0.12 0.08 0.06 0.04 0.04 0.04 0.05
0.03 0.03 0.01 0.01 0.01 0.00 0.00 0.00 0.01 0.02 0.02 0.01 0.00 0.00 0.01 0.01 0.02 0.02 0.03 0.05 0.05 0.04 0.03 0.02 0.03 0.05 0.06 0.04 0.03 0.03 0.03 0.04 0.07 0.11 0.13 0.13 0.14 0.15 0.15 0.16 0.16 0.15 0.13 0.08 0.06 0.05 0.05 0.04 0.05
0.02 0.02 0.01 0.01 0.01 0.01 0.01 0.01 0.01 0.02 0.03 0.01 0.00 0.00 0.01 0.01 0.02 0.02 0.03 0.04 0.04 0.04 0.03 0.02 0.01 0.02 0.04 0.05 0.04 0.04 0.04 0.03 0.05 0.08 0.10 0.14 0.20 0.21 0.21 0.18 0.13 0.12 0.10 0.08 0.07 0.05 0.04 0.03 0.03
0.01 0.01 0.01 0.02 0.01 0.00 0.00 0.00 0.00 0.01 0.01 0.00 0.00 0.00 0.00 0.01 0.01 0.01 0.02 0.02 0.03 0.03 0.03 0.02 0.02 0.01 0.02 0.03 0.05 0.06 0.05 0.04 0.04 0.05 0.07 0.13 0.18 0.20 0.19 0.13 0.12 0.12 0.10 0.08 0.07 0.06 0.04 0.03 0.03
0.01 0.01 0.00 0.01 0.00 0.00 0.00 0.00 0.00 0.01 0.00 0.00 0.00 0.00 0.00 0.00 0.00 0.01 0.01 0.01 0.02 0.02 0.03 0.05 0.04 0.02 0.01 0.02 0.02 0.04 0.05 0.04 0.04 0.05 0.05 0.09 0.11 0.13 0.13 0.12 0.13 0.13 0.09 0.08 0.08 0.06 0.05 0.03 0.03
0.01 0.00 0.00 0.00 0.00 0.00 0.00 0.00 0.00 0.01 0.01 0.00 0.00 0.00 0.00 0.00 0.00 0.00 0.01 0.01 0.01 0.02 0.03 0.03 0.05 0.03 0.03 0.02 0.02 0.02 0.02 0.03 0.03 0.02 0.02 0.08 0.10 0.09 0.11 0.13 0.13 0.11 0.09 0.10 0.09 0.07 0.05 0.02 0.02
0.00 0.00 0.00 0.00 0.00 0.00 0.00 0.00 0.00 0.00 0.00 0.00 0.00 0.00 0.00 0.00 0.00 0.00 0.01 0.01 0.01 0.01 0.01 0.01 0.03 0.04 0.03 0.03 0.03 0.03 0.04 0.03 0.03 0.02 0.02 0.05 0.06 0.07 0.10 0.11 0.12 0.09 0.08 0.09 0.07 0.06 0.04 0.03 0.02
0.00 0.00 0.00 0.00 0.00 0.00 0.00 0.00 0.00 0.00 0.00 0.00 0.00 0.00 0.00 0.00 0.00 0.00 0.00 0.01 0.01 0.00 0.01 0.01 0.01 0.02 0.03 0.03 0.03 0.04 0.09 0.04 0.04 0.03 0.03 0.03 0.04 0.06 0.08 0.08 0.06 0.05 0.05 0.04 0.05 0.06 0.05 0.05 0.04
0.01 0.00 0.00 0.00 0.00 0.00 0.00 0.00 0.00 0.00 0.00 0.00 0.00 0.00 0.00 0.00 0.00 0.00 0.01 0.00 0.00 0.00 0.00 0.01 0.01 0.01 0.02 0.03 0.04 0.04 0.07 0.06 0.10 0.04 0.02 0.01 0.02 0.03 0.05 0.04 0.04 0.03 0.03 0.04 0.04 0.06 0.04 0.03 0.03
0.01 0.00 0.00 0.00 0.00 0.00 0.00 0.00 0.00 0.00 0.00 0.00 0.00 0.00 0.00 0.00 0.00 0.00 0.00 0.00 0.00 0.00 0.00 0.01 0.01 0.00 0.01 0.02 0.03 0.04 0.06 0.09 0.08 0.03 0.03 0.02 0.01 0.01 0.02 0.03 0.03 0.03 0.04 0.04 0.03 0.03 0.03 0.02 0.02
0.01 0.01 0.01 0.00 0.00 0.00 0.00 0.00 0.00 0.00 0.00 0.00 0.00 0.00 0.00 0.00 0.00 0.00 0.00 0.00 0.00 0.00 0.00 0.01 0.00 0.00 0.01 0.01 0.02 0.03 0.05 0.04 0.04 0.04 0.03 0.02 0.02 0.02 0.02 0.02 0.03 0.02 0.02 0.03 0.03 0.03 0.03 0.02 0.02
0.02 0.01 0.01 0.01 0.00 0.00 0.00 0.00 0.00 0.00 0.00 0.00 0.00 0.00 0.00 0.00 0.00 0.00 0.00 0.00 0.00 0.00 0.00 0.00 0.00 0.01 0.00 0.01 0.01 0.02 0.02 0.04 0.03 0.02 0.02 0.03 0.02 0.02 0.02 0.02 0.03 0.02 0.02 0.01 0.02 0.03 0.03 0.03 0.04
0.03 0.03 0.02 0.01 0.01 0.01 0.01 0.00 0.00 0.00 0.00 0.00 0.00 0.00 0.00 0.00 0.01 0.00 0.00 0.00 0.00 0.00 0.00 0.00 0.00 0.01 0.01 0.01 0.01 0.01 0.02 0.02 0.02 0.02 0.03 0.03 0.03 0.01 0.01 0.02 0.02 0.01 0.02 0.02 0.02 0.04 0.03 0.04 0.04
0.02 0.02 0.02 0.02 0.01 0.01 0.01 0.01 0.01 0.00 0.00 0.00 0.00 0.00 0.00 0.01 0.03 0.01 0.01 0.01 0.01 0.01 0.01 0.00 0.00 0.01 0.01 0.01 0.02 0.01 0.01 0.02 0.01 0.02 0.03 0.03 0.03 0.02 0.02 0.02 0.02 0.02 0.02 0.02 0.03 0.05 0.03 0.03 0.03
0.02 0.02 0.01 0.01 0.01 0.01 0.01 0.01 0.01 0.01 0.01 0.01 0.01 0.00 0.00 0.01 0.06 0.02 0.01 0.01 0.02 0.01 0.01 0.00 0.01 0.01 0.01 0.01 0.02 0.01 0.01 0.02 0.01 0.02 0.02 0.02 0.02 0.02 0.02 0.02 0.03 0.03 0.03 0.03 0.04 0.04 0.04 0.04 0.05
0.01 0.01 0.01 0.01 0.01 0.01 0.02 0.03 0.01 0.01 0.01 0.01 0.01 0.00 0.00 0.00 0.01 0.01 0.00 0.01 0.01 0.02 0.01 0.00 0.01 0.01 0.01 0.01 0.02 0.01 0.02 0.01 0.01 0.02 0.03 0.03 0.03 0.03 0.02 0.03 0.04 0.04 0.06 0.06 0.06 0.04 0.05 0.06 0.06
0.01 0.01 0.01 0.01 0.01 0.01 0.02 0.03 0.01 0.01 0.00 0.01 0.01 0.00 0.00 0.00 0.00 0.00 0.00 0.00 0.01 0.01 0.00 0.00 0.00 0.01 0.00 0.01 0.02 0.02 0.01 0.01 0.01 0.02 0.02 0.02 0.03 0.03 0.03 0.05 0.06 0.07 0.08 0.06 0.06 0.05 0.06 0.06 0.06
0.02 0.01 0.01 0.01 0.01 0.02 0.03 0.04 0.02 0.01 0.01 0.01 0.01 0.01 0.01 0.01 0.00 0.00 0.00 0.00 0.00 0.00 0.00 0.00 0.00 0.00 0.01 0.01 0.01 0.01 0.02 0.02 0.01 0.02 0.02 0.02 0.03 0.02 0.03 0.04 0.05 0.05 0.05 0.06 0.07 0.07 0.06 0.05 0.04
0.01 0.00 0.01 0.01 0.01 0.02 0.04 0.04 0.03 0.03 0.03 0.02 0.02 0.02 0.02 0.01 0.01 0.01 0.00 0.00 0.00 0.00 0.00 0.00 0.00 0.01 0.01 0.01 0.02 0.02 0.02 0.02 0.02 0.03 0.03 0.04 0.03 0.03 0.03 0.03 0.03 0.03 0.04 0.05 0.06 0.06 0.07 0.07 0.08
0.00 0.00 0.01 0.01 0.01 0.02 0.02 0.03 0.03 0.02 0.02 0.02 0.03 0.02 0.02 0.03 0.02 0.01 0.00 0.00 0.00 0.00 0.00 0.00 0.00 0.01 0.01 0.01 0.01 0.01 0.02 0.02 0.02 0.02 0.02 0.05 0.05 0.03 0.03 0.04 0.03 0.03 0.03 0.03 0.05 0.07 0.08 0.09 0.10
0.00 0.00 0.01 0.01 0.01 0.01 0.02 0.02 0.02 0.02 0.02 0.02 0.02 0.02 0.01 0.03 0.02 0.01 0.00 0.00 0.00 0.00 0.00 0.00 0.00 0.00 0.00 0.01 0.02 0.02 0.02 0.02 0.02 0.01 0.02 0.04 0.06 0.04 0.05 0.05 0.04 0.03 0.02 0.01 0.02 0.04 0.04 0.06 0.07
0.00 0.00 0.01 0.01 0.01 0.02 0.02 0.01 0.01 0.01 0.01 0.01 0.02 0.02 0.01 0.01 0.01 0.00 0.00 0.00 0.00 0.00 0.00 0.00 0.00 0.00 0.00 0.00 0.01 0.02 0.02 0.02 0.02 0.01 0.01 0.02 0.03 0.02 0.03 0.03 0.03 0.02 0.01 0.01 0.01 0.01 0.02 0.03 0.03
0.00 0.00 0.00 0.01 0.00 0.02 0.04 0.03 0.01 0.01 0.02 0.02 0.01 0.01 0.01 0.01 0.01 0.01 0.00 0.00 0.00 0.00 0.00 0.00 0.00 0.00 0.00 0.00 0.01 0.02 0.02 0.01 0.01 0.01 0.01 0.01 0.01 0.01 0.01 0.02 0.02 0.02 0.02 0.01 0.01 0.02 0.03 0.03 0.02
0.00 0.00 0.00 0.00 0.01 0.01 0.03 0.03 0.04 0.06 0.05 0.03 0.03 0.02 0.02 0.01 0.01 0.01 0.01 0.00 0.01 0.00 0.00 0.00 0.00 0.00 0.00 0.01 0.01 0.01 0.01 0.01 0.01 0.01 0.01 0.01 0.01 0.01 0.01 0.01 0.02 0.03 0.02 0.02 0.02 0.03 0.03 0.03 0.02
0.00 0.00 0.00 0.00 0.01 0.03 0.02 0.02 0.03 0.05 0.07 0.05 0.04 0.04 0.02 0.01 0.02 0.02 0.01 0.01 0.01 0.00 0.00 0.00 0.01 0.02 0.04 0.03 0.02 0.01 0.01 0.01 0.01 0.02 0.02 0.01 0.01 0.02 0.01 0.02 0.03 0.04 0.03 0.02 0.02 0.01 0.01 0.01 0.01
0.00 0.00 0.00 0.00 0.00 0.01 0.00 0.01 0.01 0.02 0.04 0.05 0.03 0.02 0.02 0.02 0.02 0.02 0.02 0.01 0.01 0.01 0.01 0.01 0.04 0.07 0.07 0.04 0.02 0.01 0.01 0.01 0.02 0.03 0.03 0.02 0.02 0.02 0.02 0.03 0.03 0.03 0.02 0.02 0.02 0.01 0.01 0.01 0.01
MSLP
1008.70 1009.76 1011.07 1012.45 1013.71 1014.69 1015.29 1015.50 1015.39 1015.10 1014.78 1014.59 1014.60 1014.83 1015.24 1015.71 1016.12 1016.36 1016.36 1016.13 1015.71 1015.19 1014.68 1014.25 1013.97 1013.84 1013.83 1013.87 1013.91 1013.91 1013.84 1013.72 1013.58 1013.46 1013.39 1013.38 1013.44 1013.52 1013.61 1013.65 1013.64 1013.58 1013.48 1013.38 1013.31 1013.30 1013.37 1013.51 1013.71
1009.12 1010.40 1011.86 1013.28 1014.48 1015.32 1015.72 1015.70 1015.37 1014.88 1014.42 1014.11 1014.05 1014.25 1014.63 1015.10 1015.52 1015.78 1015.84 1015.68 1015.35 1014.94 1014.55 1014.23 1014.05 1013.99 1014.02 1014.08 1014.14 1014.15 1014.10 1014.01 1013.91 1013.84 1013.81 1013.84 1013.92 1014.01 1014.08 1014.12 1014.11 1014.05 1013.97 1013.90 1013.86 1013.88 1013.97 1014.11 1014.29
1009.70 1011.17 1012.69 1014.09 1015.16 1015.81 1015.99 1015.76 1015.24 1014.61 1014.06 1013.70 1013.61 1013.79 1014.16 1014.60 1015.01 1015.27 1015.34 1015.23 1014.98 1014.68 1014.40 1014.20 1014.13 1014.15 1014.24 1014.35 1014.44 1014.47 1014.44 1014.37 1014.30 1014.25 1014.24 1014.28 1014.35 1014.43 1014.49 1014.51 1014.49 1014.45 1014.40 1014.37 1014.38 1014.44 1014.55 1014.69 1014.86
1010.40 1011.96 1013.48 1014.78 1015.69 1016.13 1016.10 1015.70 1015.05 1014.36 1013.77 1013.42 1013.35 1013.53 1013.89 1014.31 1014.68 1014.91 1014.97 1014.88 1014.69 1014.48 1014.30 1014.23 1014.25 1014.36 1014.52 1014.67 1014.78 1014.83 1014.81 1014.76 1014.71 1014.67 1014.67 1014.70 1014.75 1014.80 1014.84 1014.84 1014.82 1014.79 1014.78 1014.80 1014.87 1014.97 1015.11 1015.26 1015.41
1011.11 1012.68 1014.12 1015.26 1015.98 1016.22 1016.03 1015.51 1014.81 1014.12 1013.59 1013.30 1013.29 1013.50 1013.86 1014.24 1014.56 1014.74 1014.77 1014.68 1014.53 1014.38 1014.30 1014.32 1014.44 1014.63 1014.83 1015.01 1015.14 1015.19 1015.18 1015.14 1015.09 1015.06 1015.06 1015.08 1015.11 1015.14 1015.15 1015.14 1015.12 1015.11 1015.13 1015.19 1015.30 1015.45 1015.61 1015.77 1015.91
1011.72 1013.22 1014.51 1015.47 1015.99 1016.06 1015.75 1015.18 1014.51 1013.91 1013.49 1013.32 1013.40 1013.66 1014.02 1014.37 1014.63 1014.75 1014.74 1014.64 1014.50 1014.41 1014.40 1014.49 1014.68 1014.91 1015.14 1015.32 1015.44 1015.49 1015.48 1015.43 1015.40 1015.38 1015.39 1015.41 1015.44 1015.46 1015.45 1015.43 1015.41 1015.41 1015.45 1015.54 1015.67 1015.84 1016.01 1016.17 1016.30
1012.11 1013.47 1014.59 1015.34 1015.68 1015.62 1015.26 1014.71 1014.14 1013.68 1013.43 1013.40 1013.60 1013.92 1014.29 1014.60 1014.80 1014.86 1014.81 1014.69 1014.57 1014.52 1014.56 1014.71 1014.92 1015.17 1015.40 1015.56 1015.66 1015.68 1015.66 1015.62 1015.60 1015.61 1015.64 1015.70 1015.74 1015.76 1015.76 1015.73 1015.70 1015.69 1015.72 1015.81 1015.95 1016.12 1016.29 1016.45 1016.57
1012.23 1013.42 1014.34 1014.90 1015.10 1014.96 1014.60 1014.14 1013.71 1013.43 1013.35 1013.49 1013.79 1014.17 1014.54 1014.83 1014.97 1014.98 1014.90 1014.78 1014.68 1014.66 1014.74 1014.91 1015.14 1015.38 1015.57 1015.70 1015.75 1015.75 1015.71 1015.69 1015.70 1015.75 1015.84 1015.93 1016.01 1016.06 1016.06 1016.03 1015.98 1015.95 1015.96 1016.03 1016.14 1016.29 1016.44 1016.59 1016.70
1012.12 1013.12 1013.85 1014.25 1014.34 1014.17 1013.86 1013.51 1013.25 1013.15 1013.25 1013.53 1013.92 1014.35 1014.71 1014.96 1015.07 1015.04 1014.94 1014.83 1014.76 1014.77 1014.88 1015.07 1015.29 1015.50 1015.65 1015.73 1015.74 1015.70 1015.66 1015.65 1015.70 1015.81 1015.96 1016.12 1016.25 1016.33 1016.35 1016.31 1016.25 1016.19 1016.16 1016.18 1016.25 1016.36 1016.49 1016.61 1016.72
1011.85 1012.69 1013.25 1013.53 1013.55 1013.39 1013.15 1012.94 1012.83 1012.91 1013.15 1013.54 1013.99 1014.42 1014.77 1014.98 1015.05 1015.01 1014.91 1014.81 1014.78 1014.83 1014.97 1015.16 1015.37 1015.54 1015.65 1015.68 1015.64 1015.59 1015.55 1015.56 1015.65 1015.82 1016.03 1016.25 1016.44 1016.56 1016.60 1016.56 1016.48 1016.39 1016.32 1016.29 1016.31 1016.38 1016.47 1016.57 1016.67
1011.58 1012.27 1012.71 1012.90 1012.89 1012.76 1012.61 1012.51 1012.55 1012.75 1013.10 1013.54 1014.00 1014.42 1014.73 1014.91 1014.95 1014.89 1014.81 1014.74 1014.74 1014.83 1014.98 1015.18 1015.37 1015.52 1015.59 1015.58 1015.52 1015.45 1015.41 1015.45 1015.58 1015.79 1016.06 1016.33 1016.56 1016.72 1016.78 1016.75 1016.66 1016.55 1016.44 1016.37 1016.35 1016.37 1016.44 1016.52 1016.60
1011.45 1012.02 1012.36 1012.49 1012.48 1012.39 1012.32 1012.33 1012.47 1012.75 1013.14 1013.59 1014.04 1014.41 1014.67 1014.80 1014.81 1014.76 1014.68 1014.64 1014.68 1014.78 1014.96 1015.15 1015.33 1015.45 1015.50 1015.47 1015.40 1015.33 1015.31 1015.36 1015.52 1015.75 1016.04 1016.34 1016.60 1016.78 1016.86 1016.85 1016.77 1016.65 1016.53 1016.44 1016.39 1016.39 1016.42 1016.48 1016.56
1011.57 1012.04 1012.29 1012.38 1012.37 1012.32 1012.32 1012.40 1012.60 1012.92 1013.31 1013.74 1014.13 1014.44 1014.64 1014.72 1014.71 1014.65 1014.59 1014.56 1014.61 1014.73 1014.90 1015.09 1015.26 1015.37 1015.41 1015.38 1015.32 1015.27 1015.25 1015.31 1015.47 1015.70 1015.98 1016.27 1016.53 1016.72 1016.82 1016.83 1016.78 1016.68 1016.58 1016.49 1016.44 1016.42 1016.44 1016.49 1016.56
1011.96 1012.32 1012.51 1012.56 1012.54 1012.53 1012.56 1012.69 1012.92 1013.23 1013.60 1013.96 1014.29 1014.53 1014.67 1014.72 1014.68 1014.62 1014.56 1014.54 1014.58 1014.69 1014.84 1015.01 1015.17 1015.27 1015.32 1015.32 1015.29 1015.25 1015.25 1015.31 1015.43 1015.63 1015.86 1016.11 1016.34 1016.52 1016.64 1016.68 1016.67 1016.62 1016.56 1016.50 1016.47 1016.47 1016.49 1016.53 1016.59
1012.53 1012.79 1012.89 1012.90 1012.88 1012.88 1012.95 1013.09 1013.32 1013.61 1013.92 1014.22 1014.48 1014.66 1014.75 1014.77 1014.73 1014.66 1014.60 1014.57 1014.59 1014.67 1014.79 1014.93 1015.06 1015.17 1015.24 1015.28 1015.28 1015.28 1015.28 1015.32 1015.40 1015.53 1015.69 1015.87 1016.04 1016.20 1016.32 1016.39 1016.44 1016.45 1016.46 1016.46 1016.47 1016.49 1016.52 1016.56 1016.61
1013.13 1013.27 1013.30 1013.27 1013.25 1013.27 1013.35 1013.51 1013.72 1013.97 1014.22 1014.45 1014.64 1014.77 1014.83 1014.84 1014.80 1014.74 1014.68 1014.63 1014.62 1014.65 1014.72 1014.82 1014.93 1015.05 1015.15 1015.22 1015.28 1015.31 1015.32 1015.34 1015.37 1015.41 1015.48 1015.56 1015.67 1015.78 1015.90 1016.01 1016.11 1016.20 1016.28 1016.35 1016.41 1016.46 1016.50 1016.55 1016.60
1013.60 1013.62 1013.58 1013.53 1013.53 1013.58 1013.69 1013.85 1014.04 1014.24 1014.43 1014.59 1014.72 1014.80 1014.85 1014.86 1014.84 1014.80 1014.74 1014.68 1014.64 1014.62 1014.64 1014.69 1014.78 1014.90 1015.02 1015.15 1015.25 1015.32 1015.36 1015.35 1015.32 1015.28 1015.24 1015.23 1015.26 1015.32 1015.43 1015.57 1015.73 1015.89 1016.04 1016.17 1016.27 1016.35 1016.41 1016.46 1016.51
1013.79 1013.73 1013.66 1013.64 1013.68 1013.79 1013.95 1014.13 1014.30 1014.44 1014.55 1014.63 1014.69 1014.73 1014.77 1014.79 1014.80 1014.79 1014.75 1014.69 1014.62 1014.56 1014.53 1014.54 1014.60 1014.72 1014.87 1015.04 1015.20 1015.31 1015.36 1015.35 1015.27 1015.15 1015.03 1014.92 1014.88 1014.89 1014.98 1015.14 1015.34 1015.55 1015.76 1015.93 1016.07 1016.17 1016.24 1016.29 1016.34
1013.66 1013.56 1013.53 1013.60 1013.76 1013.97 1014.21 1014.41 1014.56 1014.63 1014.65 1014.62 1014.59 1014.57 1014.58 1014.62 1014.66 1014.68 1014.68 1014.64 1014.56 1014.48 1014.40 1014.38 1014.42 1014.53 1014.71 1014.92 1015.12 1015.28 1015.35 1015.34 1015.23 1015.06 1014.86 1014.69 1014.57 1014.55 1014.62 1014.78 1015.00 1015.24 1015.48 1015.68 1015.83 1015.93 1016.00 1016.05 1016.10
1013.25 1013.20 1013.30 1013.53 1013.87 1014.25 1014.59 1014.84 1014.95 1014.93 1014.82 1014.65 1014.50 1014.38 1014.34 1014.36 1014.43 1014.50 1014.55 1014.54 1014.48 1014.38 1014.29 1014.24 1014.26 1014.36 1014.55 1014.79 1015.03 1015.23 1015.34 1015.33 1015.21 1015.01 1014.78 1014.55 1014.40 1014.33 1014.38 1014.53 1014.76 1015.00 1015.24 1015.44 1015.58 1015.67 1015.72 1015.76 1015.82
1012.69 1012.79 1013.11 1013.60 1014.19 1014.77 1015.24 1015.53 1015.60 1015.46 1015.18 1014.83 1014.49 1014.24 1014.11 1014.10 1014.17 1014.28 1014.38 1014.42 1014.39 1014.31 1014.22 1014.15 1014.15 1014.25 1014.44 1014.69 1014.96 1015.18 1015.32 1015.34 1015.23 1015.03 1014.78 1014.53 1014.35 1014.26 1014.29 1014.42 1014.62 1014.85 1015.07 1015.24 1015.36 1015.42 1015.44 1015.47 1015.52
1012.15 1012.50 1013.11 1013.93 1014.81 1015.62 1016.23 1016.56 1016.56 1016.28 1015.79 1015.21 1014.66 1014.23 1013.97 1013.88 1013.94 1014.08 1014.22 1014.32 1014.34 1014.30 1014.21 1014.14 1014.12 1014.20 1014.38 1014.63 1014.90 1015.15 1015.32 1015.36 1015.28 1015.10 1014.86 1014.61 1014.42 1014.32 1014.32 1014.42 1014.59 1014.79 1014.97 1015.10 1015.17 1015.19 1015.19 1015.19 1015.23
1011.80 1012.44 1013.40 1014.56 1015.75 1016.79 1017.53 1017.87 1017.79 1017.33 1016.62 1015.79 1015.00 1014.36 1013.95 1013.77 1013.80 1013.94 1014.13 1014.28 1014.36 1014.35 1014.28 1014.21 1014.18 1014.23 1014.38 1014.61 1014.88 1015.13 1015.32 1015.39 1015.34 1015.19 1014.98 1014.75 1014.56 1014.45 1014.43 1014.50 1014.63 1014.78 1014.92 1015.00 1015.03 1015.01 1014.98 1014.95 1014.98
1011.70 1012.66 1013.96 1015.44 1016.90 1018.13 1018.96 1019.30 1019.12 1018.48 1017.54 1016.48 1015.45 1014.61 1014.04 1013.77 1013.75 1013.90 1014.12 1014.31 1014.44 1014.47 1014.42 1014.34 1014.29 1014.32 1014.43 1014.62 1014.87 1015.12 1015.31 1015.41 1015.40 1015.28 1015.10 1014.90 1014.72 1014.60 1014.57 1014.61 1014.70 1014.81 1014.90 1014.94 1014.93 1014.88 1014.81 1014.76 1014.76
1011.88 1013.11 1014.69 1016.41 1018.07 1019.42 1020.30 1020.60 1020.32 1019.53 1018.40 1017.13 1015.92 1014.92 1014.22 1013.86 1013.80 1013.95 1014.19 1014.42 1014.58 1014.64 1014.60 1014.52 1014.45 1014.43 1014.50 1014.65 1014.86 1015.09 1015.28 1015.40 1015.42 1015.34 1015.19 1015.02 1014.86 1014.75 1014.70 1014.71 1014.77 1014.83 1014.88 1014.90 1014.86 1014.79 1014.70 1014.63 1014.60
1012.25 1013.67 1015.42 1017.28 1019.02 1020.42 1021.29 1021.54 1021.16 1020.26 1019.00 1017.61 1016.29 1015.20 1014.43 1014.03 1013.95 1014.09 1014.34 1014.59 1014.77 1014.84 1014.81 1014.71 1014.61 1014.55 1014.56 1014.67 1014.84 1015.04 1015.23 1015.35 1015.39 1015.35 1015.24 1015.09 1014.95 1014.84 1014.78 1014.77 1014.80 1014.85 1014.88 1014.87 1014.82 1014.74 1014.65 1014.56 1014.50
1012.71 1014.21 1016.00 1017.87 1019.59 1020.93 1021.74 1021.92 1021.49 1020.53 1019.25 1017.84 1016.51 1015.42 1014.66 1014.26 1014.18 1014.33 1014.58 1014.84 1015.01 1015.07 1015.02 1014.89 1014.75 1014.64 1014.61 1014.67 1014.80 1014.98 1015.15 1015.28 1015.33 1015.31 1015.23 1015.11 1014.98 1014.88 1014.82 1014.80 1014.82 1014.84 1014.86 1014.86 1014.82 1014.75 1014.65 1014.56 1014.48
1013.17 1014.63 1016.34 1018.09 1019.68 1020.90 1021.60 1021.72 1021.27 1020.35 1019.13 1017.82 1016.59 1015.59 1014.92 1014.57 1014.53 1014.68 1014.92 1015.15 1015.30 1015.32 1015.23 1015.07 1014.88 1014.72 1014.65 1014.66 1014.75 1014.89 1015.05 1015.17 1015.24 1015.24 1015.18 1015.09 1014.97 1014.88 1014.82 1014.80 1014.81 1014.83 1014.86 1014.86 1014.84 1014.79 1014.71 1014.63 1014.54
1013.59 1014.92 1016.44 1017.98 1019.35 1020.38 1020.96 1021.04 1020.62 1019.81 1018.76 1017.64 1016.61 1015.80 1015.27 1015.03 1015.03 1015.19 1015.40 1015.58 1015.66 1015.62 1015.47 1015.24 1015.00 1014.80 1014.68 1014.65 1014.70 1014.82 1014.95 1015.07 1015.14 1015.15 1015.11 1015.03 1014.93 1014.84 1014.79 1014.76 1014.78 1014.81 1014.85 1014.88 1014.88 1014.86 1014.81 1014.74 1014.66
1014.00 1015.14 1016.41 1017.68 1018.80 1019.63 1020.09 1020.14 1019.80 1019.16 1018.34 1017.49 1016.73 1016.15 1015.80 1015.67 1015.72 1015.86 1016.02 1016.12 1016.11 1015.98 1015.74 1015.45 1015.15 1014.90 1014.73 1014.66 1014.68 1014.77 1014.88 1014.98 1015.04 1015.05 1015.01 1014.94 1014.85 1014.77 1014.72 1014.70 1014.72 1014.76 1014.82 1014.87 1014.91 1014.92 1014.91 1014.86 1014.80
Thickness
5842 5840 5834 5819 5791 5767 5761 5773 5782 5780 5779 5784 5787 5781 5770 5762 5752 5740 5761 5769 5769 5769 5769 5770 5770 5771 5771 5772 5773 5775 5776 5776 5777 5777 5776 5775 5775 5774 5774 5774 5773 5772 5771 5771 5770 5768 5767 5766 5765
5846 5841 5828 5807 5774 5749 5758 5777 5779 5781 5785 5790 5787 5781 5772 5765 5768 5764 5765 5768 5770 5770 5769 5770 5770 5770 5771 5772 5772 5773 5774 5775 5775 5775 5775 5774 5774 5774 5773 5772 5771 5770 5770 5769 5768 5767 5766 5765 5764
5848 5843 5816 5792 5771 5759 5764 5781 5784 5789 5794 5792 5783 5781 5774 5766 5770 5768 5770 5771 5771 5770 5770 5770 5770 5770 5770 5771 5771 5772 5773 5773 5774 5774 5774 5774 5773 5772 5771 5770 5770 5769 5768 5767 5767 5766 5765 5764 5762
5846 5828 5810 5786 5774 5784 5787 5789 5793 5788 5789 5791 5784 5774 5776 5782 5778 5775 5774 5773 5771 5771 5771 5771 5770 5770 5770 5770 5771 5771 5771 5771 5772 5772 5772 5772 5771 5771 5770 5769 5769 5768 5767 5767 5766 5765 5764 5763 5761
5843 5818 5793 5778 5783 5795 5801 5803 5801 5789 5785 5785 5783 5769 5768 5782 5784 5779 5776 5774 5772 5771 5771 5771 5770 5770 5770 5770 5770 5770 5770 5770 5770 5770 5770 5770 5770 5770 5769 5768 5768 5767 5767 5766 5765 5764 5763 5761 5760
5828 5811 5781 5771 5785 5797 5804 5807 5802 5790 5784 5784 5780 5770 5767 5782 5781 5778 5778 5776 5774 5773 5772 5771 5771 5771 5770 5770 5770 5770 5769 5769 5769 5769 5769 5769 5769 5768 5768 5767 5767 5766 5766 5765 5764 5763 5762 5761 5760
5821 5803 5786 5785 5788 5793 5803 5812 5802 5792 5785 5786 5787 5770 5769 5778 5783 5782 5779 5777 5775 5774 5772 5771 5771 5771 5771 5770 5770 5769 5768 5768 5768 5768 5768 5768 5768 5767 5767 5766 5766 5765 5765 5764 5763 5763 5762 5760 5759
5838 5812 5795 5792 5790 5794 5811 5815 5811 5801 5793 5799 5795 5774 5768 5780 5787 5784 5780 5776 5774 5773 5772 5772 5771 5771 5771 5770 5769 5769 5768 5768 5768 5767 5767 5766 5766 5766 5765 5765 5765 5764 5764 5763 5763 5762 5761 5760 5759
5849 5807 5790 5797 5797 5801 5815 5811 5811 5815 5805 5801 5800 5792 5789 5792 5789 5782 5776 5772 5771 5772 5772 5772 5772 5771 5770 5770 5769 5769 5768 5767 5767 5767 5766 5766 5765 5765 5765 5764 5764 5764 5764 5763 5762 5762 5761 5760 5759
5838 5805 5808 5823 5822 5817 5819 5815 5811 5804 5796 5792 5792 5795 5796 5793 5787 5780 5775 5771 5770 5770 5772 5773 5773 5772 5771 5771 5770 5769 5768 5767 5767 5766 5766 5765 5764 5765 5765 5765 5764 5764 5763 5763 5762 5762 5761 5760 5760
5843 5825 5832 5836 5837 5832 5821 5818 5819 5802 5788 5792 5791 5791 5794 5790 5786 5782 5779 5777 5776 5776 5776 5776 5775 5774 5773 5771 5770 5769 5768 5768 5767 5767 5766 5765 5765 5764 5765 5765 5764 5764 5763 5763 5762 5762 5761 5761 5760
5846 5844 5845 5841 5843 5835 5826 5822 5815 5809 5803 5810 5807 5803 5797 5791 5786 5784 5782 5781 5781 5779 5778 5778 5778 5776 5774 5773 5772 5771 5770 5769 5768 5768 5767 5766 5765 5765 5765 5765 5764 5763 5763 5762 5762 5761 5761 5761 5761
5844 5844 5850 5849 5844 5840 5833 5824 5818 5812 5817 5817 5812 5806 5799 5794 5791 5790 5789 5786 5784 5781 5781 5781 5781 5778 5777 5775 5773 5772 5771 5771 5770 5769 5769 5768 5766 5766 5765 5765 5764 5764 5763 5762 5762 5761 5762 5761 5762
5847 5848 5847 5846 5842 5840 5830 5823 5819 5813 5821 5816 5810 5804 5802 5799 5796 5792 5790 5787 5785 5784 5783 5783 5782 5781 5779 5777 5775 5774 5773 5773 5772 5771 5771 5770 5769 5767 5766 5765 5765 5765 5764 5764 5763 5763 5762 5762 5762
5855 5840 5836 5838 5839 5835 5829 5809 5814 5821 5822 5814 5810 5807 5805 5803 5801 5797 5795 5792 5789 5787 5786 5785 5783 5782 5781 5779 5778 5776 5775 5775 5773 5773 5772 5772 5771 5769 5768 5767 5766 5766 5766 5765 5764 5764 5763 5762 5762
5841 5823 5811 5829 5837 5835 5818 5792 5815 5826 5820 5811 5811 5810 5806 5804 5804 5803 5801 5797 5795 5792 5788 5787 5787 5783 5782 5781 5779 5778 5777 5776 5775 5774 5773 5773 5772 5770 5769 5768 5768 5768 5767 5767 5765 5764 5762 5761 5760
5817 5801 5805 5822 5838 5833 5817 5800 5818 5826 5821 5812 5812 5812 5809 5805 5805 5806 5806 5803 5800 5796 5792 5788 5788 5785 5784 5783 5781 5779 5778 5777 5776 5775 5774 5774 5773 5772 5770 5769 5769 5768 5767 5766 5765 5763 5762 5759 5757
5801 5805 5810 5815 5832 5830 5816 5812 5822 5826 5823 5816 5815 5813 5811 5808 5808 5810 5809 5807 5804 5800 5797 5792 5790 5788 5786 5784 5781 5780 5778 5777 5776 5775 5774 5774 5773 5772 5771 5770 5769 5768 5766 5765 5764 5762 5761 5759 5757
5826 5818 5813 5824 5840 5827 5816 5814 5820 5826 5823 5818 5815 5813 5812 5812 5814 5814 5813 5811 5806 5802 5799 5795 5792 5789 5787 5783 5780 5777 5775 5776 5776 5776 5775 5775 5773 5772 5771 5770 5769 5767 5765 5764 5764 5762 5759 5756 5756
5830 5818 5815 5825 5840 5829 5814 5814 5823 5827 5826 5825 5821 5818 5816 5814 5813 5813 5812 5811 5808 5804 5801 5798 5795 5792 5790 5787 5784 5781 5779 5777 5777 5777 5776 5775 5774 5773 5772 5770 5768 5767 5765 5763 5762 5761 5757 5755 5755
5828 5822 5819 5819 5828 5827 5813 5801 5811 5823 5829 5828 5827 5826 5824 5821 5817 5815 5814 5812 5810 5807 5804 5803 5799 5796 5793 5790 5786 5783 5779 5777 5775 5775 5775 5775 5775 5773 5772 5770 5768 5767 5765 5762 5761 5760 5757 5753 5753
5819 5840 5837 5828 5808 5792 5802 5772 5795 5810 5816 5822 5824 5826 5826 5826 5824 5821 5818 5814 5813 5812 5810 5807 5803 5799 5796 5793 5788 5782 5777 5773 5774 5775 5775 5775 5774 5773 5771 5770 5768 5766 5765 5763 5761 5760 5758 5754 5750
5834 5848 5839 5827 5805 5790 5792 5776 5785 5805 5805 5816 5824 5828 5830 5831 5829 5826 5824 5821 5820 5817 5813 5809 5805 5801 5798 5794 5790 5785 5780 5778 5777 5776 5774 5773 5773 5772 5771 5769 5767 5765 5764 5762 5761 5759 5757 5755 5750
5849 5836 5823 5806 5789 5769 5784 5776 5777 5796 5810 5819 5826 5830 5832 5833 5833 5830 5829 5826 5822 5820 5816 5811 5806 5802 5800 5796 5793 5788 5783 5780 5777 5774 5772 5771 5770 5770 5769 5768 5766 5764 5762 5761 5759 5758 5756 5754 5751
5835 5800 5770 5765 5753 5760 5786 5781 5785 5816 5828 5830 5830 5832 5836 5838 5835 5831 5828 5826 5823 5820 5817 5813 5808 5803 5801 5798 5794 5791 5787 5783 5779 5776 5773 5770 5768 5767 5767 5767 5765 5763 5761 5760 5758 5756 5753 5752 5749
5822 5801 5767 5752 5748 5759 5779 5777 5802 5831 5838 5840 5839 5839 5840 5838 5837 5834 5833 5831 5828 5824 5820 5815 5810 5806 5804 5800 5796 5793 5790 5786 5782 5779 5776 5772 5770 5769 5768 5766 5763 5761 5760 5758 5756 5753 5751 5750 5748
5818 5804 5803 5774 5764 5756 5764 5784 5808 5830 5833 5834 5834 5835 5835 5837 5837 5836 5835 5833 5830 5827 5823 5820 5814 5809 5806 5804 5800 5794 5791 5787 5784 5781 5778 5775 5772 5770 5768 5765 5762 5760 5758 5755 5753 5750 5748 5747 5745
5832 5818 5789 5770 5750 5744 5757 5769 5782 5805 5816 5825 5827 5829 5833 5837 5838 5836 5834 5834 5832 5830 5827 5823 5818 5813 5809 5806 5802 5798 5793 5789 5786 5781 5777 5774 5772 5770 5766 5763 5760 5757 5755 5753 5750 5747 5745 5743 5742
5817 5810 5791 5771 5766 5747 5741 5761 5809 5811 5820 5823 5829 5834 5835 5835 5835 5834 5835 5835 5833 5830 5826 5821 5817 5813 5809 5806 5802 5798 5794 5790 5786 5782 5778 5774 5771 5768 5764 5760 5757 5754 5752 5749 5746 5744 5742 5739 5737
5820 5809 5791 5770 5763 5759 5752 5767 5824 5825 5829 5830 5832 5835 5838 5837 5837 5836 5835 5833 5830 5827 5824 5820 5817 5813 5810 5807 5802 5797 5793 5789 5785 5780 5777 5773 5769 5766 5762 5759 5755 5752 5749 5746 5743 5740 5738 5735 5732